CW3846 Weather Reports


Display with metric or nautical units.
time (UTC)temp
F
wind
direction
speed
MPH
gust
MPH
rain 1hr
in
rain 24hr
in
rain mn
in
humidity
%
barometer
mb
20260509164543 90 0 0.0 0.0 0.00 0.00 0.00 9 1011.1
20260509164032 89 0 0.0 0.0 0.00 0.00 0.00 9 1011.1
20260509163532 89 0 0.0 0.0 0.00 0.00 0.00 10 1011.2
20260509163043 89 0 0.0 0.0 0.00 0.00 0.00 9 1011.2
20260509162531 88 0 0.0 0.0 0.00 0.00 0.00 10 1011.1
20260509162031 88 0 0.0 0.0 0.00 0.00 0.00 10 1011.1
20260509161553 88 0 0.0 0.0 0.00 0.00 0.00 9 1011.1
20260509161033 87 0 0.0 0.0 0.00 0.00 0.00 9 1011.1
20260509160532 87 0 0.0 0.0 0.00 0.00 0.00 9 1011.1
20260509160044 87 0 0.0 0.0 0.00 0.00 0.00 10 1011.1
20260509155532 86 0 0.0 0.0 0.00 0.00 0.00 10 1011.1
20260509155030 86 0 0.0 0.0 0.00 0.00 0.00 10 1011.1
20260509154548 85 0 0.0 0.0 0.00 0.00 0.00 11 1011.0
20260509154032 85 0 0.0 0.0 0.00 0.00 0.00 11 1011.0
20260509153531 84 0 0.0 0.0 0.00 0.00 0.00 11 1011.0
20260509153055 84 0 0.0 0.0 0.00 0.00 0.00 11 1011.0
20260509152531 84 0 0.0 0.0 0.00 0.00 0.00 12 1011.0
20260509152032 83 0 0.0 0.0 0.00 0.00 0.00 13 1011.0
20260509151543 83 0 0.0 0.0 0.00 0.00 0.00 14 1011.0
20260509151031 82 0 0.0 0.0 0.00 0.00 0.00 15 1011.0
20260509150531 81 0 0.0 0.0 0.00 0.00 0.00 15 1011.1
20260509150049 81 0 0.0 0.0 0.00 0.00 0.00 15 1011.0
20260509145531 80 0 0.0 0.0 0.00 0.00 0.00 15 1011.0
20260509145031 79 0 0.0 0.0 0.00 0.00 0.00 18 1010.9
20260509144550 79 0 0.0 0.0 0.00 0.00 0.00 18 1010.8
20260509144032 78 0 0.0 0.0 0.00 0.00 0.00 17 1010.7
20260509143531 78 0 0.0 0.0 0.00 0.00 0.00 17 1010.8
20260509143048 77 0 0.0 0.0 0.00 0.00 0.00 19 1010.8
20260509142531 77 0 0.0 0.0 0.00 0.00 0.00 22 1010.8
20260509142030 77 0 0.0 0.0 0.00 0.00 0.00 17 1010.7
20260509141545 76 0 0.0 0.0 0.00 0.00 0.00 17 1010.7
20260509141031 76 0 0.0 0.0 0.00 0.00 0.00 17 1010.6
20260509140531 76 0 0.0 0.0 0.00 0.00 0.00 18 1010.7
20260509140055 75 0 0.0 0.0 0.00 0.00 0.00 18 1010.7
20260509135531 75 0 0.0 0.0 0.00 0.00 0.00 18 1010.8
20260509135031 75 0 0.0 0.0 0.00 0.00 0.00 18 1010.6
20260509134539 74 0 0.0 0.0 0.00 0.00 0.00 18 1010.6
20260509134032 74 0 0.0 0.0 0.00 0.00 0.00 18 1010.6
20260509133532 74 0 0.0 0.0 0.00 0.00 0.00 18 1010.4
20260509133041 74 0 0.0 0.0 0.00 0.00 0.00 20 1010.4
20260509132532 74 0 0.0 0.0 0.00 0.00 0.00 19 1010.4
20260509132032 73 0 0.0 0.0 0.00 0.00 0.00 18 1010.3
20260509131545 73 0 0.0 0.0 0.00 0.00 0.00 18 1010.3
20260509131033 73 0 0.0 0.0 0.00 0.00 0.00 17 1010.2
20260509130534 73 0 0.0 0.0 0.00 0.00 0.00 18 1010.2
20260509130044 73 0 0.0 0.0 0.00 0.00 0.00 17 1010.1
20260509125532 73 0 0.0 0.0 0.00 0.00 0.00 17 1010.2
20260509125029 73 0 0.0 0.0 0.00 0.00 0.00 17 1010.1
20260509124547 73 0 0.0 0.0 0.00 0.00 0.00 17 1010.0
20260509124029 74 0 0.0 0.0 0.00 0.00 0.00 18 1010.0
20260509123529 74 0 0.0 0.0 0.00 0.00 0.00 18 1010.0
20260509123042 74 0 0.0 0.0 0.00 0.00 0.00 17 1009.9
20260509122534 75 0 0.0 0.0 0.00 0.00 0.00 17 1009.9
20260509122031 75 0 0.0 0.0 0.00 0.00 0.00 16 1009.8
20260509121539 75 0 0.0 0.0 0.00 0.00 0.00 17 1009.8
20260509121032 75 0 0.0 0.0 0.00 0.00 0.00 16 1009.7
20260509120530 76 0 0.0 0.0 0.00 0.00 0.00 16 1009.7
20260509120047 76 0 0.0 0.0 0.00 0.00 0.00 16 1009.8
20260509115530 76 0 0.0 0.0 0.00 0.00 0.00 16 1009.7
20260509115029 77 0 0.0 0.0 0.00 0.00 0.00 16 1009.6
20260509114543 77 0 0.0 0.0 0.00 0.00 0.00 16 1009.6
20260509114030 77 0 0.0 0.0 0.00 0.00 0.00 16 1009.6
20260509113530 77 0 0.0 0.0 0.00 0.00 0.00 16 1009.5
20260509113044 77 0 0.0 0.0 0.00 0.00 0.00 15 1009.5
20260509112529 77 0 0.0 0.0 0.00 0.00 0.00 15 1009.5
20260509112032 77 0 0.0 0.0 0.00 0.00 0.00 15 1009.5
20260509111543 77 0 0.0 0.0 0.00 0.00 0.00 16 1009.5
20260509111029 77 0 0.0 0.0 0.00 0.00 0.00 16 1009.4
20260509110528 78 0 0.0 0.0 0.00 0.00 0.00 16 1009.4
20260509110050 78 0 0.0 0.0 0.00 0.00 0.00 16 1009.5
20260509105532 78 0 0.0 0.0 0.00 0.00 0.00 16 1009.4
20260509105031 78 0 0.0 0.0 0.00 0.00 0.00 16 1009.3
20260509104546 78 0 0.0 0.0 0.00 0.00 0.00 16 1009.4
20260509104029 78 0 0.0 0.0 0.00 0.00 0.00 16 1009.3
20260509103529 78 0 0.0 0.0 0.00 0.00 0.00 16 1009.3
20260509103052 78 0 0.0 0.0 0.00 0.00 0.00 16 1009.3
20260509102530 78 0 0.0 0.0 0.00 0.00 0.00 16 1009.4
20260509102030 78 0 0.0 0.0 0.00 0.00 0.00 16 1009.2
20260509101543 79 0 0.0 0.0 0.00 0.00 0.00 16 1009.3
20260509101031 79 0 0.0 0.0 0.00 0.00 0.00 16 1009.3
20260509100530 79 0 0.0 0.0 0.00 0.00 0.00 16 1009.4
20260509100051 79 0 0.0 0.0 0.00 0.00 0.00 16 1009.3
20260509095529 79 0 0.0 0.0 0.00 0.00 0.00 16 1009.3
20260509095031 79 0 0.0 0.0 0.00 0.00 0.00 16 1009.2
20260509094555 79 0 0.0 0.0 0.00 0.00 0.00 15 1009.3
20260509094030 79 0 0.0 0.0 0.00 0.00 0.00 15 1009.2
20260509093532 79 0 0.0 0.0 0.00 0.00 0.00 15 1009.2
20260509093044 79 0 0.0 0.0 0.00 0.00 0.00 15 1009.4
20260509092530 79 0 0.0 0.0 0.00 0.00 0.00 14 1009.4
20260509092030 79 0 0.0 0.0 0.00 0.00 0.00 14 1009.3
20260509091550 79 0 0.0 0.0 0.00 0.00 0.00 14 1009.3
20260509091029 79 0 0.0 0.0 0.00 0.00 0.00 13 1009.3
20260509090532 79 0 0.0 0.0 0.00 0.00 0.00 13 1009.3
20260509090053 79 0 0.0 0.0 0.00 0.00 0.00 13 1009.2
20260509085531 79 0 0.0 0.0 0.00 0.00 0.00 13 1009.2
20260509085029 79 0 0.0 0.0 0.00 0.00 0.00 13 1009.2
20260509084558 79 0 0.0 0.0 0.00 0.00 0.00 12 1009.3
20260509084030 79 0 0.0 0.0 0.00 0.00 0.00 12 1009.2
20260509083531 80 0 0.0 0.0 0.00 0.00 0.00 12 1009.2
20260509083104 80 0 0.0 0.0 0.00 0.00 0.00 11 1009.1
20260509082533 80 0 0.0 0.0 0.00 0.00 0.00 11 1009.2
20260509082030 81 0 0.0 0.0 0.00 0.00 0.00 11 1009.3
20260509081545 81 0 0.0 0.0 0.00 0.00 0.00 11 1009.2
20260509081031 81 0 0.0 0.0 0.00 0.00 0.00 11 1009.2
20260509080533 81 0 0.0 0.0 0.00 0.00 0.00 11 1009.2
20260509080048 81 0 0.0 0.0 0.00 0.00 0.00 11 1009.2
20260509075532 81 0 0.0 0.0 0.00 0.00 0.00 11 1009.2
20260509075031 82 0 0.0 0.0 0.00 0.00 0.00 10 1009.1
20260509074555 82 0 0.0 0.0 0.00 0.00 0.00 10 1009.1
20260509074032 82 0 0.0 0.0 0.00 0.00 0.00 10 1009.1
20260509073531 83 0 0.0 0.0 0.00 0.00 0.00 10 1009.1
20260509073059 83 0 0.0 0.0 0.00 0.00 0.00 10 1009.1
20260509072531 83 0 0.0 0.0 0.00 0.00 0.00 10 1009.0
20260509072031 83 0 0.0 0.0 0.00 0.00 0.00 10 1009.0
20260509071552 84 0 0.0 0.0 0.00 0.00 0.00 10 1009.1
20260509071034 84 0 0.0 0.0 0.00 0.00 0.00 10 1009.0
20260509070530 84 0 0.0 0.0 0.00 0.00 0.00 10 1009.0
20260509070048 84 0 0.0 0.0 0.00 0.00 0.00 10 1009.0
20260509065531 84 0 0.0 0.0 0.00 0.00 0.00 10 1009.0
20260509065033 85 0 0.0 0.0 0.00 0.00 0.00 10 1009.0
20260509064543 85 0 0.0 0.0 0.00 0.00 0.00 10 1009.0
20260509064032 85 0 0.0 0.0 0.00 0.00 0.00 10 1009.1
20260509063531 85 0 0.0 0.0 0.00 0.00 0.00 10 1009.0
20260509063056 85 0 0.0 0.0 0.00 0.00 0.00 10 1009.0
20260509062531 85 0 0.0 0.0 0.00 0.00 0.00 10 1009.0
20260509062031 86 0 0.0 0.0 0.00 0.00 0.00 10 1009.1
20260509061548 86 0 0.0 0.0 0.00 0.00 0.00 10 1009.0
20260509061031 86 0 0.0 0.0 0.00 0.00 0.00 10 1009.0
20260509060533 86 0 0.0 0.0 0.00 0.00 0.00 10 1008.9
20260509060104 87 0 0.0 0.0 0.00 0.00 0.00 10 1008.9
20260509055531 87 0 0.0 0.0 0.00 0.00 0.00 10 1008.8
20260509055032 87 0 0.0 0.0 0.00 0.00 0.00 10 1008.9
20260509054545 88 0 0.0 0.0 0.00 0.00 0.00 10 1008.7
20260509054032 88 0 0.0 0.0 0.00 0.00 0.00 10 1008.8
20260509053531 88 0 0.0 0.0 0.00 0.00 0.00 10 1008.9
20260509053054 88 0 0.0 0.0 0.00 0.00 0.00 10 1008.7
20260509052531 89 0 0.0 0.0 0.00 0.00 0.00 10 1008.8
20260509052030 89 0 0.0 0.0 0.00 0.00 0.00 10 1008.8
20260509051547 89 0 0.0 0.0 0.00 0.00 0.00 10 1008.8
20260509051031 89 0 0.0 0.0 0.00 0.00 0.00 10 1008.8
20260509050533 90 0 0.0 0.0 0.00 0.00 0.00 10 1008.8
20260509050043 90 0 0.0 0.0 0.00 0.00 0.00 10 1008.8
20260509045531 90 0 0.0 0.0 0.00 0.00 0.00 10 1008.7
20260509045031 91 0 0.0 0.0 0.00 0.00 0.00 10 1008.7
20260509044543 91 0 0.0 0.0 0.00 0.00 0.00 9 1008.6
20260509044031 91 0 0.0 0.0 0.00 0.00 0.00 9 1008.5
20260509043530 91 0 0.0 1.0 0.00 0.00 0.00 9 1008.5
20260509043051 91 0 0.0 1.0 0.00 0.00 0.00 9 1008.5
20260509042748 91 0 0.0 0.0 0.00 0.00 0.00 9 1008.4
20260509042031 92 0 0.0 1.0 0.00 0.00 0.00 9 1008.3
20260509041544 92 0 0.0 1.0 0.00 0.00 0.00 9 1008.4
20260509041030 92 0 0.0 1.0 0.00 0.00 0.00 9 1008.3
20260509040532 92 0 0.0 1.0 0.00 0.00 0.00 9 1008.2
20260509035530 92 0 0.0 2.0 0.00 0.00 0.00 9 1008.0
20260509035033 93 0 0.0 1.0 0.00 0.00 0.00 9 1007.9
20260509034547 93 0 0.0 1.0 0.00 0.00 0.00 9 1007.9
20260509034030 93 0 0.0 1.0 0.00 0.00 0.00 9 1007.8
20260509033531 93 0 0.0 1.0 0.00 0.00 0.00 9 1007.8
20260509033108 94 0 0.0 1.0 0.00 0.00 0.00 9 1007.8
20260509032529 94 0 0.0 1.0 0.00 0.00 0.00 9 1007.7
20260509032031 94 0 0.0 1.0 0.00 0.00 0.00 9 1007.7
20260509031548 94 0 0.0 1.0 0.00 0.00 0.00 8 1007.7
20260509031030 94 0 0.0 1.0 0.00 0.00 0.00 8 1007.6
20260509030531 95 0 0.0 1.0 0.00 0.00 0.00 8 1007.5
20260509030044 95 0 0.0 1.0 0.00 0.00 0.00 8 1007.5
20260509025530 95 0 0.0 3.0 0.00 0.00 0.00 8 1007.3
20260509025033 95 0 0.0 3.0 0.00 0.00 0.00 8 1007.3
20260509024556 96 0 0.0 2.0 0.00 0.00 0.00 8 1007.3
20260509024029 96 0 0.0 2.0 0.00 0.00 0.00 8 1007.2
20260509023533 96 0 0.0 1.0 0.00 0.00 0.00 8 1007.2
20260509023047 96 0 0.0 1.0 0.00 0.00 0.00 8 1007.2
20260509022529 97 0 0.0 1.0 0.00 0.00 0.00 8 1007.1
20260509022032 97 0 0.0 1.0 0.00 0.00 0.00 8 1007.0
20260509021543 97 0 0.0 1.0 0.00 0.00 0.00 8 1006.9
20260509021033 97 0 0.0 1.0 0.00 0.00 0.00 8 1006.9
20260509020533 98 0 0.0 1.0 0.00 0.00 0.00 8 1006.8
20260509020052 98 0 0.0 1.0 0.00 0.00 0.00 7 1006.9
20260509015531 98 0 0.0 1.0 0.00 0.00 0.00 7 1006.8
20260509015031 98 0 0.0 3.0 0.00 0.00 0.00 7 1006.7
20260509014544 99 0 0.0 3.0 0.00 0.00 0.00 7 1006.7
20260509014030 99 0 0.0 1.0 0.00 0.00 0.00 7 1006.8
20260509013529 99 0 0.0 1.0 0.00 0.00 0.00 7 1006.7
20260509013045 99 0 0.0 2.0 0.00 0.00 0.00 7 1006.8
20260509012529 100 0 0.0 2.0 0.00 0.00 0.00 7 1006.8
20260509012029 100 0 0.0 1.0 0.00 0.00 0.00 7 1006.8
20260509011551 100 0 0.0 1.0 0.00 0.00 0.00 7 1006.8
20260509011028 101 0 0.0 1.0 0.00 0.00 0.00 7 1006.9
20260509010529 101 0 0.0 2.0 0.00 0.00 0.00 7 1006.9
20260509010046 101 0 0.0 2.0 0.00 0.00 0.00 7 1006.9
20260509005530 101 0 0.0 3.0 0.00 0.00 0.00 6 1006.9
20260509005029 102 0 0.0 3.0 0.00 0.00 0.00 6 1007.0
20260509004543 102 0 0.0 3.0 0.00 0.00 0.00 6 1007.0
20260509004031 102 0 0.0 2.0 0.00 0.00 0.00 7 1007.1
20260509003531 102 0 0.0 2.0 0.00 0.00 0.00 6 1007.1
20260509003055 102 229 0.0 1.0 0.00 0.00 0.00 6 1007.2
20260509002530 102 0 0.0 0.0 0.00 0.00 0.00 7 1007.2
20260509002030 102 0 0.0 0.0 0.00 0.00 0.00 7 1007.3
20260509001542 102 0 0.0 0.0 0.00 0.00 0.00 6 1007.3
20260509001031 102 0 0.0 0.0 0.00 0.00 0.00 7 1007.3
20260509000532 102 0 0.0 0.0 0.00 0.00 0.00 6 1007.4
20260509000041 102 0 0.0 1.0 0.00 0.00 0.00 6 1007.4
20260508235532 102 0 0.0 1.0 0.00 0.00 0.00 7 1007.5
20260508235031 102 0 0.0 2.0 0.00 0.00 0.00 7 1007.5
20260508234545 102 0 0.0 3.0 0.00 0.00 0.00 6 1007.5
20260508234030 102 0 0.0 4.0 0.00 0.00 0.00 7 1007.6
20260508233534 102 180 0.0 4.0 0.00 0.00 0.00 7 1007.6
20260508233046 103 0 0.0 1.0 0.00 0.00 0.00 7 1007.5
20260508232530 102 0 0.0 1.0 0.00 0.00 0.00 7 1007.5
20260508232030 102 0 0.0 2.0 0.00 0.00 0.00 7 1007.7
20260508231547 102 0 0.0 3.0 0.00 0.00 0.00 7 1007.7
20260508231031 102 0 0.0 3.0 0.00 0.00 0.00 6 1007.7
20260508230531 102 0 0.0 4.0 0.00 0.00 0.00 7 1007.9
20260508230045 102 0 0.0 4.0 0.00 0.00 0.00 6 1007.9
20260508225531 102 0 0.0 4.0 0.00 0.00 0.00 7 1008.0
20260508225031 102 0 0.0 3.0 0.00 0.00 0.00 6 1008.1
20260508224551 102 201 0.0 4.0 0.00 0.00 0.00 6 1008.1
20260508224031 102 0 0.0 4.0 0.00 0.00 0.00 7 1008.3
20260508223531 102 0 0.0 2.0 0.00 0.00 0.00 7 1008.3
20260508223046 102 0 0.0 5.0 0.00 0.00 0.00 7 1008.3
20260508222531 102 0 0.0 7.0 0.00 0.00 0.00 7 1008.6
20260508222030 102 182 1.0 7.0 0.00 0.00 0.00 7 1008.6
20260508221555 102 0 0.0 2.0 0.00 0.00 0.00 7 1008.6
20260508221031 102 0 0.0 3.0 0.00 0.00 0.00 7 1008.7
20260508220530 101 0 0.0 3.0 0.00 0.00 0.00 7 1008.8
20260508220050 101 0 0.0 4.0 0.00 0.00 0.00 7 1008.9
20260508215529 101 0 0.0 4.0 0.00 0.00 0.00 8 1009.0
20260508215032 101 0 0.0 6.0 0.00 0.00 0.00 8 1008.9
20260508214545 101 0 0.0 6.0 0.00 0.00 0.00 8 1009.0
20260508214031 101 0 0.0 1.0 0.00 0.00 0.00 8 1009.3
20260508213530 101 0 0.0 4.0 0.00 0.00 0.00 9 1009.4
20260508213040 101 0 0.0 4.0 0.00 0.00 0.00 9 1009.4
20260508212531 100 0 0.0 4.0 0.00 0.00 0.00 9 1009.6
20260508212030 100 0 0.0 1.0 0.00 0.00 0.00 9 1009.7
20260508211545 100 0 0.0 1.0 0.00 0.00 0.00 9 1009.7
20260508211030 99 0 0.0 0.0 0.00 0.00 0.00 9 1009.7
20260508210531 99 0 0.0 1.0 0.00 0.00 0.00 9 1009.9
20260508210045 99 0 0.0 1.0 0.00 0.00 0.00 10 1010.0
20260508205530 99 0 0.0 3.0 0.00 0.00 0.00 10 1010.1
20260508205030 99 0 0.0 3.0 0.00 0.00 0.00 10 1010.2
20260508204545 98 0 0.0 3.0 0.00 0.00 0.00 10 1010.2
20260508204031 98 0 0.0 2.0 0.00 0.00 0.00 10 1010.2
20260508203530 98 0 0.0 3.0 0.00 0.00 0.00 10 1010.4
20260508203042 98 0 0.0 3.0 0.00 0.00 0.00 10 1010.4
20260508202531 98 0 0.0 1.0 0.00 0.00 0.00 10 1010.5
20260508202028 97 0 0.0 1.0 0.00 0.00 0.00 10 1010.6
20260508201543 97 0 0.0 2.0 0.00 0.00 0.00 10 1010.6
20260508201030 97 0 0.0 2.0 0.00 0.00 0.00 10 1010.7
20260508200532 96 0 0.0 2.0 0.00 0.00 0.00 10 1010.7
20260508200046 96 195 0.0 2.0 0.00 0.00 0.00 10 1010.9
20260508195530 96 0 0.0 2.0 0.00 0.00 0.00 10 1010.9
20260508195030 97 0 0.0 1.0 0.00 0.00 0.00 10 1011.0
20260508194556 96 0 0.0 3.0 0.00 0.00 0.00 10 1011.0
20260508194132 96 0 0.0 3.0 0.00 0.00 0.00 10 1011.1
20260508193532 96 0 0.0 3.0 0.00 0.00 0.00 10 1010.9
20260508193042 96 0 0.0 1.0 0.00 0.00 0.00 10 1011.1
20260508192532 96 0 0.0 1.0 0.00 0.00 0.00 10 1011.3
20260508192031 95 0 0.0 0.0 0.00 0.00 0.00 10 1011.4
20260508191547 95 0 0.0 0.0 0.00 0.00 0.00 11 1011.4
20260508191032 94 0 0.0 0.0 0.00 0.00 0.00 11 1011.7
20260508190532 94 0 0.0 0.0 0.00 0.00 0.00 11 1011.6
20260508190107 94 0 0.0 0.0 0.00 0.00 0.00 11 1011.7
20260508185533 94 0 0.0 0.0 0.00 0.00 0.00 11 1011.8
20260508185034 93 0 0.0 0.0 0.00 0.00 0.00 11 1011.8
20260508184543 92 0 0.0 0.0 0.00 0.00 0.00 11 1011.9
20260508184030 92 0 0.0 0.0 0.00 0.00 0.00 12 1012.0
20260508183531 91 0 0.0 0.0 0.00 0.00 0.00 12 1012.1
20260508183045 91 0 0.0 0.0 0.00 0.00 0.00 12 1012.2
20260508182530 90 0 0.0 0.0 0.00 0.00 0.00 13 1012.3
20260508182034 89 0 0.0 0.0 0.00 0.00 0.00 12 1012.2
20260508181548 89 0 0.0 0.0 0.00 0.00 0.00 13 1012.3
20260508181030 89 0 0.0 1.0 0.00 0.00 0.00 13 1012.3
20260508180530 89 0 0.0 1.0 0.00 0.00 0.00 13 1012.5
20260508180043 88 0 0.0 1.0 0.00 0.00 0.00 13 1012.5
20260508175530 88 0 0.0 1.0 0.00 0.00 0.00 13 1012.6
20260508175034 88 0 0.0 0.0 0.00 0.00 0.00 14 1012.6
20260508174548 88 0 0.0 0.0 0.00 0.00 0.00 13 1012.5
20260508174031 87 0 0.0 0.0 0.00 0.00 0.00 14 1012.5
20260508173531 87 0 0.0 0.0 0.00 0.00 0.00 14 1012.5
20260508173045 87 0 0.0 0.0 0.00 0.00 0.00 14 1012.5
20260508172532 87 0 0.0 0.0 0.00 0.00 0.00 14 1012.5
20260508172032 87 0 0.0 0.0 0.00 0.00 0.00 14 1012.6
20260508171546 86 0 0.0 0.0 0.00 0.00 0.00 15 1012.7
20260508171031 86 0 0.0 0.0 0.00 0.00 0.00 15 1012.7
20260508170531 85 0 0.0 0.0 0.00 0.00 0.00 15 1012.7
20260508170044 85 0 0.0 0.0 0.00 0.00 0.00 15 1012.7
20260508165530 85 0 0.0 0.0 0.00 0.00 0.00 15 1012.7
20260508165031 84 0 0.0 0.0 0.00 0.00 0.00 15 1012.6